Regional Weather Roundup
Issued by NWS Kansas City/Pleasant Hill, MO

Home | Current Version | Previous Version | Graphics & Text | Print | Product List | Glossary Off
Versions: 1 2 3 4 5 6 7 8 9 10 11 12 13 14 15 16 17 18 19 20 21 22 23 24 25 26 27 28 29 30 31 32 33 34 35 36 37 38 39 40 41 42 43 44 45 46 47 48 49 50

000
ASUS43 KEAX 270211
RWREAX

WEATHER ROUNDUP FOR EASTERN KANSAS AND NORTHWEST MISSOURI
NATIONAL WEATHER SERVICE KANSAS CITY/PLEASANT HILL MO
900 PM CDT TUE MAY 26 2015

KSZ040-057-103>105-MOZ028-029-037-043-270300-
...KANSAS CITY METROPOLITAN AREA...

CITY           SKY/WX    TMP DP  RH WIND       PRES   REMARKS
K.C. INTL      PTCLDY    67  60  78 SW6       29.91R
K.C. DOWNTOWN  PTCLDY    74  58  57 W6        29.89R
LEES SUMMIT    MOCLDY    73  57  57 W5        29.91R
OLATHE - IXD   MOCLDY    73  59  61 W6        29.92R
OLATHE - OJC   MOCLDY    73  58  59 W7        29.90R
LAWRENCE       PTCLDY    71  60  68 W5        29.91R

$$

MOZ001>008-011>017-020>025-030>033-038>040-044>046-053-054-270300-
...NORTHERN AND CENTRAL MISSOURI...

CITY           SKY/WX    TMP DP  RH WIND       PRES   REMARKS
ST. JOSEPH     CLEAR     69  58  67 W6        29.89R
MOSBY          CLEAR     72  59  64 SW5       29.90R
WARRENSBURG    HVY RAIN  68  63  83 S14       29.92R
WHITEMAN AFB   MOCLDY    71  63  75 SW9       29.91R
CLINTON        MOCLDY    72  64  78 S5        29.92S
SEDALIA        PTCLDY    72  62  71 S10       29.93R
WARSAW         NOT AVBL
CHILLICOTHE      N/A     70  62  76 CALM      29.89R
KIRKSVILLE     CLOUDY    67  62  84 W10       29.88R

$$

MOZ041-047>049-056>058-063>065-088>090-097-270300-
...EASTERN AND SOUTHERN MISSOURI...

CITY           SKY/WX    TMP DP  RH WIND       PRES   REMARKS
ST. LOUIS INTL PTCLDY    76  59  55 S8        29.95R
SPIRIT OF STL  CLEAR    N/A N/A N/A S6        29.93R
COLUMBIA       CLEAR     68  61  78 S8        29.92R
JEFFERSON CITY CLEAR     74  60  61 S7        29.91R
ROLLA          CLEAR     67  60  78 S8        29.94S
OSAGE BEACH    CLEAR     70  61  73 SW5       29.94R
SPRINGFIELD    MOCLDY    70  62  76 S10       29.96S
BRANSON        MOCLDY    72  59  64 S5        30.02R
JOPLIN         CLOUDY    72  63  73 W7        29.98R
WEST PLAINS    CLEAR     69  61  75 S5        30.03R

$$

IAZ060-094-KSZ022-034>040-054-083-096-NEZ052-066-093-270300-
...KANSAS...SOUTHEAST NEBRASKA AND IOWA...

CITY           SKY/WX    TMP DP  RH WIND       PRES   REMARKS
TOPEKA         PTCLDY    72  58  61 SW3       29.91R
MANHATTAN      PTCLDY    69  57  65 CALM      29.93R
EMPORIA        CLOUDY    66  59  78 SW7       29.93R
CHANUTE        MOCLDY    70  66  87 S9        29.95R
WICHITA        MOCLDY    67  62  84 S6        29.96R
OMAHA          MOCLDY    66  56  70 W5        29.86R
LINCOLN        PTCLDY    67  54  63 W3        29.90R
FALLS CITY     CLEAR     66  59  78 NW5       29.89R
LAMONI         CLEAR     66  60  81 W7        29.86R
DES MOINES     MOCLDY    65  60  84 W7        29.82R

$$




USA.gov is the U.S. government's official web portal to all federal, state and local government web resources and services.